Brussels Airport

Airport
ICAO code: 
EBBR
IATA Code: 
BRU
Summary
ICAO Region: 
EUR
Territory: 
Location: 
Zaventem Diegem, Machelen,
Serving: 
Brussel
Elevation: 
184 ft
Coordinates: 
Aerial View: 
50° 53' 56.461" N, 4° 29' 9.239" E
Airport BS: 
Bird Strike
Metar
Observation
EBBR 270220Z 23010KT 9999 BKN025 04/01 Q1028 NOSIG
Station
Bruxelles National
Date/Time
2022-01-27 02:20:00
Wind direction
230°
Wind speed
10 kts
Lowest cloud amount
broken clouds
Temperature
4°C
Dew point
1°C
Humidity
80%
QNH
1028 hPa
Weather condition
n/a

Description

International airport serving the capital of Belgium.

Climatology

Temperate Marine climate/Oceanic climate (Köppen climate classification Cfb) - Moderately cool summer and comparatively warm winter.

Runways

Designator Length Width Surface Rops
2/20 2987 50 ASP Yes/Yes
07R/25L 3211 45 ASP Yes/Yes
07L/25R 3638 45 CON Yes/Yes
Airport map: 
Aerial View: 

SKYbrary Partners:

Safety knowledge contributed by: